Regional Weather Roundup
Issued by NWS Cleveland, OH

Home | Current Version | Previous Version | Graphics & Text | Print | Product List | Glossary On
Versions: 1 2 3 4 5 6 7 8 9 10 11 12 13 14 15 16 17 18 19 20 21 22 23 24 25 26 27 28 29 30 31 32 33 34 35 36 37 38 39 40 41 42 43 44 45 46 47 48 49 50
000
ASUS41 KCLE 040902
RWRCLE
OHIO REGIONAL WEATHER ROUNDUP
NATIONAL WEATHER SERVICE CLEVELAND, OH
500 AM EDT WED MAY 04 2016

NOTE: "FAIR" INDICATES FEW OR NO CLOUDS BELOW 12,000 FEET WITH NO
SIGNIFICANT WEATHER AND/OR OBSTRUCTIONS TO VISIBILITY.

OHZ001>008-015>018-024>027-034-035-043-044-041000-
   NORTHWEST OHIO

CITY           SKY/WX    TMP DP  RH WIND       PRES   REMARKS
DEFIANCE       CLOUDY    52  44  74 S8        29.66F
FINDLAY        CLOUDY    50  42  74 S8        29.68F
TOLEDO EXPRESS CLOUDY    50  44  80 S6        29.66F
TOLEDO EXEC    CLOUDY    50  43  77 S9        29.68F
LIMA           CLOUDY    50  44  80 S8        29.69F
$$

OHZ009>014-019>023-028>033-038-089-041000-
   NORTHEAST OHIO

CITY           SKY/WX    TMP DP  RH WIND       PRES   REMARKS
CLE-HOPKINS    PTCLDY    44  39  82 S8        29.72F
CLE-LAKEFRONT  PTCLDY    48  38  68 S9        29.70F
CUY CO. ARPT   NOT AVBL
LORAIN-ELYRIA  CLEAR     42  39  89 S3        29.70F
ASHTABULA      CLEAR     41  39  93 S5        29.73F
AKRON-CANTON   PTCLDY    47  40  76 S6        29.72F
WOOSTER        CLEAR     42  40  92 CALM      29.72F
MANSFIELD      CLEAR     42  40  92 S6        29.71F
YOUNGSTOWN     MOCLDY    38  36  92 SE5       29.72F
$$

OHZ042-051>053-060>062-070>072-077>081-041000-
  SOUTHWEST OHIO

CITY           SKY/WX    TMP DP  RH WIND       PRES   REMARKS
CINC-COVINGTON CLOUDY    48  46  93 SW5       29.75F
CINC-LUNKEN    MOCLDY    48  48 100 CALM      29.76F
HAMILTON       PTCLDY    45  44  97 CALM      29.75F
DAYTON         PTCLDY    47  45  93 SW9       29.73F
WRIGHT-PAT AFB CLEAR     45  45 100 CALM      29.73F
DAYTON GENERAL CLEAR     45  42  89 S5        29.73F FOG
WILMINGTON     CLEAR     45  45 100 SW5       29.74F FOG
$$

OHZ036-037-039>041-045>050-054>059-063>069-073>076-082>088-041000-
  CENTRAL AND SOUTHEAST OHIO

CITY           SKY/WX    TMP DP  RH WIND       PRES   REMARKS
COLUMBUS       PTCLDY    45  44  97 S3        29.73F
OSU AIRPORT    CLEAR     47  44  90 S5        29.72F
BOLTON FIELD   NOT AVBL
RICKENBACK AFB NOT AVBL
NEWARK         MOCLDY    46  43  89 CALM      29.73F FOG
MARION         CLEAR     42  40  92 S6        29.72F FOG
LANCASTER      CLOUDY    49  46  90 S6        29.74F
ZANESVILLE     CLOUDY    52  48  86 CALM      29.74F
NEW PHILLY     CLOUDY    48  45  89 E3        29.74S
$$



USA.gov is the U.S. government's official web portal to all federal, state and local government web resources and services.